Tracking 29892 objects as of 21-Nov-2024
HD Live streaming from Space Station
objects crossing your sky now

ONEWEB-0145

Track ONEWEB-0145 now!
10-day predictions
ONEWEB-0145 is classified as:


NORAD ID: 47291
Int'l Code: 2020-100AK
Perigee: 1,219.6 km
Apogee: 1,222.1 km
Inclination: 87.9 °
Period: 109.7 minutes
Semi major axis: 7591 km
RCS: Unknown
Launch date: December 18, 2020
Source: United Kingdom (UK)
Launch site: VOSTOCHNY COSMODROME (VOSTO)
Your satellite tracking list
Your tracking list is empty




NASA's NSSDC Master Catalog

Two Line Element Set (TLE):
1 47291U 20100AK  24325.34789914 -.00000406  00000-0 -11633-2 0  9995
2 47291  87.8862 104.9406 0001619 100.9182 259.2128 13.12440225189490
Source of the keplerian elements: AFSPC